Weather History for KOQT - September, 2013

Change the Weather History Date:

Sunday, September 1, 2013

  Actual Average (KTYS) Record (KTYS)
Temperature  
Mean Temperature 78 °F 76 °F  
Max Temperature 88 °F 86 °F 100 °F (1951)
Min Temperature 69 °F 66 °F 50 °F (1946)
Degree Days  
Heating Degree Days 0 0  
Month to date heating degree days 0  
Since 1 July heating degree days 0  
Cooling Degree Days 13 11  
Month to date cooling degree days 11  
Year to date cooling degree days 1292  
Growing Degree Days 28 (Base 50)    
Moisture  
Dew Point 69 °F    
Average Humidity 81    
Maximum Humidity 97    
Minimum Humidity 60    
Precipitation  
Precipitation 0.06 in 0.10 in 1.10 in (1982)
Month to date precipitation 0.10  
Year to date precipitation 33.70  
Snow  
Snow 0.00 in 0.00 in - ()
Month to date snowfall 0.0  
Since 1 July snowfall 0.0  
Since 1 September snowfall 0.0  
Snow Depth -    
Sea Level Pressure  
Sea Level Pressure 29.88 in    
Wind  
Wind Speed 2 mph (SW)    
Max Wind Speed 7 mph    
Max Gust Speed -    
Visibility 10 miles    
Events Rain    
T = Trace of Precipitation, MM = Missing Value Source: NWS Daily Summary

Daily Weather History Graph

Daily Weather History Graph

Search for Another Location

Airport or City:

Trip Planner

Search our weather history database for the weather conditions in past years. The results will help you decide how hot, cold, wet, or windy it might be!

Date:

Astronomy

Sep. 01, 2013 Rise Set
Actual Time 7:08 AM EDT 8:04 PM EDT
Civil Twilight 6:42 AM EDT 8:30 PM EDT
Nautical Twilight 6:11 AM EDT 9:01 PM EDT
Astronomical Twilight 5:39 AM EDT 9:33 PM EDT
Moon 3:34 AM EDT 5:37 PM EDT
Length of Visible Light 13h 47m
Length of Day
12h 55m
Waning Crescent, 14% of the Moon is Illuminated
Sep 1
Waning Crescent
Sep 5
New
Sep 12
First Quarter
Sep 19
Full
Sep 26
Last Quarter

Hourly Weather History & Observations

Time (EDT) Temp. Heat Index Dew Point Humidity Pressure Visibility Wind Dir Wind Speed Gust Speed Precip Events Conditions
12:53 AM 70.0 °F - 66.9 °F 90% 29.89 in 10.0 mi Calm Calm - N/A   Clear
1:53 AM 70.0 °F - 68.0 °F 93% 29.89 in 10.0 mi Calm Calm - N/A   Overcast
2:53 AM 70.0 °F - 66.9 °F 90% 29.88 in 10.0 mi Calm Calm - N/A   Clear
3:53 AM 70.0 °F - 66.9 °F 90% 29.88 in 10.0 mi Calm Calm - N/A   Partly Cloudy
4:45 AM 69.8 °F - 66.2 °F 88% 29.92 in 10.0 mi Calm Calm - N/A   Mostly Cloudy
4:53 AM 70.0 °F - 66.9 °F 90% 29.87 in 10.0 mi Calm Calm - N/A   Mostly Cloudy
5:53 AM 71.1 °F - 66.9 °F 87% 29.86 in 10.0 mi Calm Calm - N/A   Overcast
6:53 AM 72.0 °F - 66.9 °F 84% 29.86 in 10.0 mi Calm Calm - N/A   Overcast
7:17 AM 71.6 °F - 66.2 °F 83% 29.92 in 1.5 mi Calm Calm - 0.00 in Rain Rain
7:33 AM 69.8 °F - 68.0 °F 94% 29.93 in 10.0 mi Calm Calm - 0.05 in Rain Light Rain
7:53 AM 70.0 °F - 69.1 °F 97% 29.88 in 10.0 mi Calm Calm - 0.05 in   Overcast
8:53 AM 71.1 °F - 69.1 °F 93% 29.88 in 10.0 mi SSW 4.6 mph - 0.01 in   Mostly Cloudy
9:01 AM 71.6 °F - 69.8 °F 94% 29.92 in 10.0 mi Calm Calm - N/A   Mostly Cloudy
9:12 AM 71.6 °F - 69.8 °F 94% 29.92 in 10.0 mi Calm Calm - N/A   Mostly Cloudy
9:53 AM 73.9 °F - 71.1 °F 91% 29.88 in 9.0 mi Variable 3.5 mph - N/A   Overcast
10:12 AM 73.4 °F - 71.6 °F 94% 29.92 in 8.0 mi Variable 3.5 mph - N/A   Overcast
10:46 AM 77.0 °F - 71.6 °F 83% 29.91 in 9.0 mi Variable 3.5 mph - N/A   Overcast
10:53 AM 78.1 °F - 72.0 °F 81% 29.87 in 10.0 mi Variable 3.5 mph - N/A   Mostly Cloudy
11:12 AM 77.0 °F - 71.6 °F 83% 29.92 in 10.0 mi Variable 5.8 mph - N/A   Mostly Cloudy
11:53 AM 78.1 °F - 71.1 °F 79% 29.90 in 10.0 mi Variable 4.6 mph - N/A   Overcast
12:25 PM 78.8 °F - 69.8 °F 74% 29.93 in 10.0 mi Variable 6.9 mph - N/A   Partly Cloudy
12:53 PM 82.0 °F 85.9 °F 70.0 °F 67% 29.88 in 10.0 mi Variable 6.9 mph - N/A   Clear
1:53 PM 82.0 °F 85.9 °F 70.0 °F 67% 29.88 in 10.0 mi Variable 4.6 mph - N/A   Mostly Cloudy
2:53 PM 84.0 °F 89.0 °F 71.1 °F 65% 29.85 in 10.0 mi WSW 5.8 mph - N/A   Partly Cloudy
3:53 PM 87.1 °F 93.6 °F 72.0 °F 61% 29.83 in 10.0 mi Variable 5.8 mph - N/A   Partly Cloudy
4:53 PM 82.0 °F 84.5 °F 66.9 °F 60% 29.84 in 10.0 mi Calm Calm - 0.00 in   Scattered Clouds
5:53 PM 82.9 °F 87.0 °F 70.0 °F 65% 29.83 in 10.0 mi Variable 5.8 mph - N/A   Clear
6:53 PM 82.0 °F 86.3 °F 71.1 °F 69% 29.83 in 10.0 mi SSW 5.8 mph - N/A   Clear
7:53 PM 81.0 °F 84.1 °F 69.1 °F 67% 29.84 in 10.0 mi Variable 4.6 mph - N/A   Partly Cloudy
8:53 PM 78.1 °F - 70.0 °F 76% 29.86 in 10.0 mi Calm Calm - N/A   Scattered Clouds
9:53 PM 77.0 °F - 69.1 °F 76% 29.87 in 10.0 mi Calm Calm - N/A   Scattered Clouds
10:53 PM 75.0 °F - 69.1 °F 82% 29.88 in 10.0 mi SW 3.5 mph - N/A   Clear
11:53 PM 75.0 °F - 69.1 °F 82% 29.88 in 10.0 mi SW 3.5 mph - N/A   Clear